Regional Weather Roundup
Issued by NWS Upton, NY

Current Version | Previous Version | Text Only | Print | Product List | Glossary Off
Versions: 1 2 3 4 5 6 7 8 9 10 11 12 13 14 15 16 17 18 19 20 21 22 23 24 25 26 27 28 29 30 31 32 33 34 35 36 37 38 39 40 41 42 43 44 45 46 47 48 49 50
000 ASUS41 KOKX 312205 RWROKX REGIONAL WEATHER ROUNDUP NATIONAL WEATHER SERVICE NEW YORK NY 600 PM EDT TUE MAY 31 2016 NOTE: "FAIR" INDICATES FEW OR NO CLOUDS BELOW 12,000 FEET WITH NO SIGNIFICANT WEATHER AND/OR OBSTRUCTIONS TO VISIBILITY. NYZ071-072-176-178-NJZ106-104-312300- NEW YORK CITY METRO AREA CITY SKY/WX TMP DP RH WIND PRES REMARKS CENTRAL PARK SUNNY 78 59 51 VRB5 29.94S LAGUARDIA APRT MOSUNNY 81 63 54 SW13 29.91S KENNEDY INTL MOSUNNY 73 67 81 S9 29.93F NEWARK/LIBERTY MOSUNNY 82 60 47 SE7 29.91F BRNX BOT. GARD N/A 81 59 47 E2 29.94F TETERBORO MOSUNNY 82 57 42 S8 29.89F $$ NYZ177-179-078>081-312300- LONG ISLAND NEW YORK CITY SKY/WX TMP DP RH WIND PRES REMARKS FARMINGDALE SUNNY 76 64 66 S10 29.93S ISLIP MOSUNNY 75 65 70 S10 29.92F SHIRLEY SUNNY 74 67 78 S7 29.93F RIVERHEAD N/A 79 66 65 NE1 29.91F WESTHAMPTON SUNNY 70 65 84 SW8 29.94F EAST HAMPTON FAIR 71 65 81 SW7 29.92F MONTAUK POINT N/A 73 65 75 SW6 29.92F $$ NYZ052-065-067-312300- HUDSON VALLEY CITY SKY/WX TMP DP RH WIND PRES REMARKS WHITE PLAINS MOSUNNY 80 62 54 S8 29.92S NEWBURGH MOSUNNY 84 57 39 NW12 29.92S MONTGOMERY SUNNY 86 55 34 NW9 29.91R POUGHKEEPSIE MOSUNNY 86 57 37 N3 29.88S ALBANY MOSUNNY 81 46 29 NW18G28 29.91S $$ NJZ001-105-106-008-010-013-015-019>022-104-312300- NEW JERSEY CITY SKY/WX TMP DP RH WIND PRES REMARKS NEWARK/LIBERTY MOSUNNY 82 60 47 SE7 29.91F TETERBORO MOSUNNY 82 57 42 S8 29.89F CALDWELL MOSUNNY 87 52 29 NW6 29.91S MORRISTOWN PTSUNNY 86 54 32 N6 29.91F SOMERVILLE PTSUNNY 86 52 30 CALM 29.90S SUSSEX SUNNY 84 53 34 N3 29.93S ANDOVER N/A 84 52 33 CALM 29.93S TRENTON SUNNY 86 53 32 VRB3 29.92S MILLVILLE SUNNY 80 67 64 VRB3 29.93R ATLANTIC CITY SUNNY 79 66 64 SE5 29.93S WRIGHTSTOWN MOSUNNY 79 70 72 SE9 29.90R TOMS RIVER SUNNY 81 66 61 SE6 29.94S BELMAR SUNNY 76 67 73 SE7 29.94F $$ PAZ047>061-062-071-312300- EASTERN PENNSYLVANIA CITY SKY/WX TMP DP RH WIND PRES REMARKS PHILADELPHIA MOSUNNY 86 49 27 NW10 29.93R ALLENTOWN MOSUNNY 85 51 31 NW3 29.93R SCRANTON CLOUDY 84 54 35 NW12 29.95S $$ CTZ002-004>006-009-010-012-RIZ004-006-007-MAZ004-011-015-312300- SOUTHERN NEW ENGLAND IN CT CITY SKY/WX TMP DP RH WIND PRES REMARKS BRADLEY INTL MOSUNNY 85 53 33 W8 29.88S HARTFORD MOSUNNY 88 52 29 W9 29.88S DANBURY SUNNY 83 53 35 W7 29.92S WTRBRY/OXFORD MOSUNNY 81 52 36 CALM 29.95S BRIDGEPORT SUNNY 81 64 56 S14 29.90S MERIDEN SUNNY 83 57 41 S7 29.89F NEW HAVEN MOSUNNY 77 60 55 S8 29.90F CHESTER FAIR 79 57 47 SW8 29.92S GROTON SUNNY 70 65 84 SW9 29.90S WILLIMANTIC SUNNY 86 50 28 NW9 29.89S IN RI CITY SKY/WX TMP DP RH WIND PRES REMARKS PROVIDENCE MOSUNNY 80 62 54 SW12 29.88S BLOCK ISLAND SUNNY 69 63 81 SW16 29.92F WESTERLY SUNNY 75 62 64 SW7 29.91F IN MA CITY SKY/WX TMP DP RH WIND PRES REMARKS BOSTON MOSUNNY 85 46 25 W12G21 29.85S WORCESTER SUNNY 79 48 33 W13G23 29.91S WESTFIELD SUNNY 84 51 31 NW13 29.89S PROVINCETOWN SUNNY 69 63 81 SW16G25 29.88S NANTUCKET MOSUNNY 64 60 87 SW12 29.93S $$ ANZ330-335-338-340-345-350-353-355-312300- COASTAL MARINE OBSERVATIONS STATION/POSITION TIME SKY/WX TEMP WIND PRES VSBY WAVE AIR SEA DIR/SP/G HT/PER (UTC) (F) (DEG/KT/KT) (MB) (MI) (FT/S) NY HARB ENTRANCE 2050 64 61 190/ 8/ 8 1013.4 3/ 7 20S FIRE ISLAND 2050 65 64 200/ 4/ 6 1013.5 4/ 7 GREAT SOUTH BAY 2130 67 72 220/ 8/ 10 N/A 23 SSW MONTAUK P 2050 63 61 240/ 6/ 8 1013.3 4/ 8 15 E BARNEGAT LI 2122 65 N/A 4/ 8 HUDSON CANYON 2050 66 65 1013.9 5/ 8 KINGS POINT 2100 71 63 1012.9 EXECUTION ROCKS NOT AVBL CENTRAL LI SOUND 2100 72 200/ 8/ 10 N/A 0 EASTERN LI SOUND 2100 65 56 190/ 6/ 6 N/A ROBBINS REEF 2106 73 160/ 16/ 17 1012.6 $$ >>>>>>>>>>>>>>>>>>>>>>>>>>>> KEY <<<<<<<<<<<<<<<<<<<<<<<<<<< > < > SKY/WX - SKY CONDITION/PRESENT WEATHER < > TMP - TEMPERATURE IN FAHRENHEIT < > DP - DEWPOINT IN FAHRENHEIT < > RH - RELATIVE HUMIDITY IN PERCENT < > WIND - DIRECTION AND SPEED IN MPH < > PRES - MEAN SEA LEVEL PRESSURE IN INCHES OF HG < > WCI - WIND CHILL INDEX < > VSB - VISIBILITY IN MILES < > HX - HEAT INDEX < > TC - TEMPERATURE IN CELSIUS < > VRB - VARIABLE WIND DIRECTION < > < >>>>>>>>>>>>>>>>>>>>>>>>>>>> KEY <<<<<<<<<<<<<<<<<<<<<<<<<<<

USA.gov is the U.S. government's official web portal to all federal, state and local government web resources and services.